contact:dominique.lefevre@mio.osupytheas.fr, maurice.libes@osupytheas.fr, didier.mallarino@osupytheas.fr
Project:EMSO http://www.emso-fr.org/EMSO-France
Depth: 2436.0 m
Title:EMSO Ligure Ouest : Data MII capteur AQUADOPP
Date,Latitude,Longitude,X_East,Y_North,Z_Up,Amplitude_X,Amplitude_Y,Amplitude_Z,Batterie,SoundSpeed,Heading,Pitch,Roll,Pressure,TIS,Speed,Direction
, degrees North, degrees East, m.s-1, m.s-1,m.s-1, 1, 1, 1, Volt, m.s-1, degree, degree, degree, dbar, degree_C, m.s-1, degree
2020-10-10T00:04:03,42.805,6.029,0.003,-0.003,-0.025,102.0,108.0,100.0,13.4,1505.3,323.8,-0.7,1.8,2470.528,13.31,0.004,135.0
2020-10-10T00:07:03,42.805,6.029,0.005,0.024,0.076,100.0,109.0,99.0,13.4,1505.3,327.5,-0.7,1.9,2470.5,13.31,0.024,11.8
2020-10-10T00:10:03,42.805,6.029,0.011,-0.005,-0.016,101.0,110.0,100.0,13.4,1505.3,325.6,-0.7,1.9,2470.512,13.32,0.012,114.4
2020-10-10T00:13:03,42.805,6.029,-0.014,-0.003,0.001,101.0,110.0,100.0,13.4,1505.3,326.0,-0.7,1.8,2470.477,13.32,0.014,257.9
2020-10-10T00:16:03,42.805,6.029,0.0,0.0,0.008,101.0,110.0,99.0,13.4,1505.3,323.6,-0.7,1.8,2470.511,13.32,0.0,0.0
2020-10-10T00:19:03,42.805,6.029,0.009,0.009,0.038,102.0,109.0,100.0,13.4,1505.3,328.8,-0.7,1.9,2470.462,13.32,0.012,45.0
2020-10-10T00:22:03,42.805,6.029,0.035,0.022,-0.004,102.0,108.0,100.0,13.3,1505.3,325.1,-0.7,1.8,2470.492,13.32,0.041,57.8
2020-10-10T00:25:03,42.805,6.029,0.01,0.0,-0.011,101.0,109.0,100.0,13.3,1505.3,327.8,-0.7,1.9,2470.486,13.32,0.01,90.0
2020-10-10T00:28:03,42.805,6.029,0.03,-0.004,0.001,102.0,107.0,99.0,13.3,1505.3,323.3,-0.7,1.8,2470.439,13.32,0.03,97.6
2020-10-10T00:31:03,42.805,6.029,0.002,0.006,0.0,100.0,109.0,101.0,13.3,1505.3,324.4,-0.7,1.8,2470.518,13.32,0.006,18.4
2020-10-10T00:34:03,42.805,6.029,0.02,0.019,0.02,102.0,108.0,100.0,13.4,1505.3,326.1,-0.7,1.8,2470.411,13.32,0.027,46.5
2020-10-10T00:37:03,42.805,6.029,0.024,0.007,0.032,101.0,109.0,101.0,13.3,1505.3,326.8,-0.7,1.8,2470.466,13.32,0.025,73.7
2020-10-10T00:40:03,42.805,6.029,0.012,0.005,-0.021,101.0,109.0,100.0,13.3,1505.3,324.8,-0.7,1.8,2470.455,13.32,0.013,67.4
2020-10-10T00:43:03,42.805,6.029,-0.002,0.0,-0.02,101.0,107.0,100.0,13.4,1505.3,328.1,-0.7,1.9,2470.436,13.32,0.002,270.0
2020-10-10T00:46:03,42.805,6.029,0.037,-0.004,0.007,102.0,108.0,100.0,13.3,1505.3,324.0,-0.7,1.8,2470.446,13.32,0.037,96.2
2020-10-10T00:49:03,42.805,6.029,0.014,-0.009,0.012,102.0,108.0,100.0,13.3,1505.3,324.0,-0.7,1.8,2470.49,13.32,0.016,122.7
2020-10-10T00:52:03,42.805,6.029,0.005,0.007,0.004,102.0,108.0,99.0,13.3,1505.3,325.7,-0.7,1.8,2470.513,13.32,0.008,35.5
2020-10-10T00:55:03,42.805,6.029,0.005,-0.019,0.031,101.0,109.0,100.0,13.3,1505.3,326.9,-0.7,1.8,2470.454,13.32,0.019,165.3
2020-10-10T00:58:03,42.805,6.029,0.037,-0.001,0.023,102.0,109.0,101.0,13.4,1505.3,325.0,-0.7,1.9,2470.481,13.33,0.037,91.5
2020-10-10T01:04:03,42.805,6.029,0.01,0.018,0.013,105.0,109.0,101.0,13.4,1505.3,325.0,-0.7,1.8,2470.518,13.31,0.02,29.1
2020-10-10T01:07:03,42.805,6.029,0.006,0.008,0.007,102.0,108.0,101.0,13.3,1505.3,323.1,-0.7,1.9,2470.459,13.31,0.01,36.9
2020-10-10T01:10:03,42.805,6.029,-0.013,-0.016,-0.035,100.0,109.0,100.0,13.3,1505.3,323.2,-0.7,1.8,2470.476,13.32,0.02,219.1
2020-10-10T01:13:03,42.805,6.029,0.051,-0.002,0.014,101.0,109.0,101.0,13.3,1505.3,323.0,-0.7,1.8,2470.498,13.32,0.051,92.2
2020-10-10T01:16:03,42.805,6.029,0.018,-0.023,0.007,101.0,109.0,99.0,13.3,1505.3,325.9,-0.7,1.8,2470.464,13.32,0.029,142.0
2020-10-10T01:19:03,42.805,6.029,0.025,0.012,0.005,101.0,108.0,100.0,13.4,1505.3,326.9,-0.7,1.8,2470.466,13.32,0.027,64.4
2020-10-10T01:22:03,42.805,6.029,0.019,-0.024,-0.007,101.0,109.0,99.0,13.4,1505.3,324.5,-0.7,1.8,2470.452,13.32,0.03,141.6
2020-10-10T01:25:03,42.805,6.029,0.016,0.012,0.027,102.0,109.0,100.0,13.4,1505.3,325.2,-0.7,1.8,2470.441,13.32,0.02,53.1
2020-10-10T01:28:03,42.805,6.029,0.041,0.016,0.032,102.0,108.0,100.0,13.3,1505.3,327.3,-0.7,1.9,2470.442,13.32,0.044,68.7
2020-10-10T01:31:03,42.805,6.029,0.05,0.003,0.047,100.0,110.0,100.0,13.3,1505.3,325.0,-0.7,1.8,2470.451,13.32,0.05,86.6
2020-10-10T01:34:03,42.805,6.029,0.017,0.007,0.029,101.0,109.0,100.0,13.3,1505.3,328.0,-0.7,1.8,2470.431,13.32,0.018,67.6
2020-10-10T01:37:03,42.805,6.029,0.027,-0.002,0.027,101.0,109.0,101.0,13.4,1505.3,325.9,-0.7,1.9,2470.458,13.32,0.027,94.2
2020-10-10T01:40:03,42.805,6.029,0.023,0.0,-0.006,102.0,107.0,100.0,13.4,1505.3,327.1,-0.7,1.8,2470.423,13.32,0.023,90.0
2020-10-10T01:43:03,42.805,6.029,0.014,0.0,0.006,101.0,108.0,100.0,13.3,1505.3,326.8,-0.6,1.8,2470.431,13.32,0.014,90.0
2020-10-10T01:46:03,42.805,6.029,-0.004,0.016,-0.011,101.0,108.0,100.0,13.4,1505.3,324.4,-0.7,1.8,2470.48,13.32,0.016,346.0
2020-10-10T01:49:03,42.805,6.029,-0.014,-0.009,0.005,100.0,109.0,99.0,13.4,1505.3,326.4,-0.7,1.9,2470.486,13.32,0.016,237.3
2020-10-10T01:52:03,42.805,6.029,-0.004,-0.002,-0.036,102.0,109.0,100.0,13.3,1505.3,323.2,-0.7,1.8,2470.463,13.33,0.004,243.4
2020-10-10T01:55:03,42.805,6.029,-0.034,0.003,-0.042,102.0,108.0,100.0,13.3,1505.3,327.2,-0.7,1.9,2470.465,13.33,0.034,275.0
2020-10-10T01:58:03,42.805,6.029,0.029,-0.004,0.033,100.0,109.0,100.0,13.4,1505.3,326.1,-0.7,1.8,2470.452,13.33,0.029,97.8
2020-10-10T02:04:03,42.805,6.029,0.01,-0.015,-0.017,103.0,108.0,100.0,13.4,1505.3,325.4,-0.7,1.8,2470.471,13.31,0.018,146.3
2020-10-10T02:07:03,42.805,6.029,-0.009,-0.011,-0.019,101.0,109.0,99.0,13.3,1505.3,324.0,-0.7,1.8,2470.503,13.31,0.014,219.3
2020-10-10T02:10:03,42.805,6.029,-0.003,0.002,-0.001,101.0,109.0,100.0,13.4,1505.3,327.3,-0.7,1.8,2470.485,13.32,0.003,303.7
2020-10-10T02:13:03,42.805,6.029,-0.009,-0.006,-0.019,102.0,109.0,100.0,13.4,1505.3,328.0,-0.7,1.8,2470.46,13.32,0.01,236.3
2020-10-10T02:16:03,42.805,6.029,-0.014,0.007,-0.02,102.0,108.0,100.0,13.4,1505.3,323.8,-0.7,1.8,2470.437,13.32,0.015,296.6
2020-10-10T02:19:03,42.805,6.029,0.021,0.011,0.044,102.0,107.0,101.0,13.4,1505.3,323.8,-0.7,1.8,2470.439,13.32,0.023,62.4
2020-10-10T02:22:03,42.805,6.029,-0.012,0.008,0.004,102.0,107.0,99.0,13.4,1505.3,326.1,-0.7,1.8,2470.466,13.33,0.014,303.7
2020-10-10T02:25:03,42.805,6.029,-0.014,0.0,-0.001,103.0,108.0,99.0,13.4,1505.3,325.8,-0.7,1.8,2470.367,13.33,0.014,270.0
2020-10-10T02:28:03,42.805,6.029,-0.01,-0.013,-0.043,102.0,108.0,99.0,13.3,1505.3,324.5,-0.7,1.9,2470.447,13.33,0.016,217.6
2020-10-10T02:31:03,42.805,6.029,-0.023,-0.009,-0.059,101.0,107.0,100.0,13.4,1505.3,325.1,-0.7,1.8,2470.431,13.33,0.024,248.6
2020-10-10T02:34:03,42.805,6.029,0.017,0.004,0.015,101.0,108.0,100.0,13.3,1505.3,324.8,-0.7,1.8,2470.451,13.33,0.017,76.8
2020-10-10T02:37:03,42.805,6.029,-0.017,-0.009,-0.031,101.0,107.0,102.0,13.4,1505.3,326.3,-0.7,1.8,2470.466,13.33,0.019,242.1
2020-10-10T02:40:03,42.805,6.029,-0.02,0.0,-0.003,101.0,107.0,100.0,13.3,1505.3,324.2,-0.7,1.8,2470.481,13.33,0.02,270.0
2020-10-10T02:43:03,42.805,6.029,0.014,-0.005,0.01,101.0,109.0,100.0,13.3,1505.3,325.3,-0.7,1.8,2470.427,13.33,0.014,109.6
2020-10-10T02:46:03,42.805,6.029,0.006,-0.004,-0.001,103.0,107.0,100.0,13.3,1505.3,325.1,-0.7,1.8,2470.434,13.33,0.007,123.7
2020-10-10T02:52:03,42.805,6.029,-0.001,-0.023,-0.005,102.0,106.0,100.0,13.3,1505.3,323.6,-0.7,1.8,2470.457,13.31,0.023,182.5
2020-10-10T02:55:03,42.805,6.029,0.009,-0.012,-0.012,102.0,106.0,102.0,13.4,1505.3,328.4,-0.7,1.9,2470.457,13.31,0.015,143.1
2020-10-10T02:58:03,42.805,6.029,-0.006,-0.007,-0.003,101.0,107.0,100.0,13.4,1505.3,324.2,-0.7,1.8,2470.433,13.32,0.009,220.6
2020-10-10T03:04:03,42.805,6.029,0.03,-0.003,0.007,100.0,107.0,100.0,13.3,1505.2,326.3,-0.8,1.8,2470.498,13.3,0.03,95.7
2020-10-10T03:07:03,42.805,6.029,0.0,0.0,-0.021,102.0,106.0,100.0,13.3,1505.3,327.3,-0.7,1.8,2470.471,13.31,0.0,0.0
2020-10-10T03:10:03,42.805,6.029,0.042,-0.008,0.007,101.0,105.0,101.0,13.4,1505.3,327.5,-0.7,1.8,2470.44,13.32,0.042,100.8
2020-10-10T03:13:03,42.805,6.029,0.033,-0.007,0.02,101.0,105.0,100.0,13.4,1505.3,325.1,-0.7,1.8,2470.452,13.32,0.033,102.0
2020-10-10T03:16:03,42.805,6.029,0.012,-0.009,0.008,102.0,106.0,100.0,13.4,1505.3,325.7,-0.7,1.8,2470.441,13.32,0.015,126.9
2020-10-10T03:19:03,42.805,6.029,0.017,-0.01,0.017,103.0,105.0,99.0,13.3,1505.3,326.5,-0.7,1.9,2470.384,13.32,0.019,120.5
2020-10-10T03:25:03,42.805,6.029,0.013,-0.004,0.004,101.0,106.0,100.0,13.3,1505.2,327.7,-0.8,1.8,2470.473,13.3,0.013,107.1
2020-10-10T03:28:03,42.805,6.029,0.011,-0.015,-0.003,103.0,105.0,100.0,13.4,1505.3,327.9,-0.7,1.8,2470.524,13.31,0.018,143.7
2020-10-10T03:31:03,42.805,6.029,0.026,-0.003,0.011,101.0,105.0,100.0,13.3,1505.3,324.2,-0.7,1.8,2470.465,13.32,0.026,96.6
2020-10-10T03:34:03,42.805,6.029,0.002,0.0,-0.008,102.0,104.0,101.0,13.4,1505.3,327.9,-0.7,1.8,2470.394,13.32,0.002,90.0
2020-10-10T03:37:03,42.805,6.029,0.034,-0.022,0.0,101.0,104.0,100.0,13.4,1505.3,327.9,-0.7,1.9,2470.428,13.32,0.04,122.9
2020-10-10T03:40:03,42.805,6.029,-0.004,-0.003,0.007,101.0,104.0,101.0,13.3,1505.3,327.6,-0.7,1.8,2470.414,13.32,0.005,233.1
2020-10-10T03:43:03,42.805,6.029,0.039,-0.002,-0.022,103.0,105.0,98.0,13.4,1505.3,325.5,-0.7,1.8,2470.433,13.33,0.039,92.9
2020-10-10T03:46:03,42.805,6.029,0.025,-0.015,-0.002,102.0,106.0,100.0,13.4,1505.3,326.9,-0.7,1.8,2470.442,13.33,0.029,121.0
2020-10-10T03:49:03,42.805,6.029,0.032,-0.013,0.0,103.0,106.0,99.0,13.4,1505.3,328.1,-0.7,1.8,2470.459,13.33,0.034,112.1
2020-10-10T03:52:03,42.805,6.029,0.025,0.012,0.013,101.0,105.0,99.0,13.4,1505.3,324.5,-0.7,1.9,2470.418,13.33,0.027,64.4
2020-10-10T03:55:03,42.805,6.029,-0.002,-0.008,-0.017,101.0,106.0,100.0,13.4,1505.3,328.0,-0.7,1.8,2470.449,13.33,0.008,194.0
2020-10-10T03:58:03,42.805,6.029,0.022,-0.02,0.01,102.0,106.0,99.0,13.4,1505.3,324.6,-0.7,1.8,2470.419,13.33,0.029,132.3
2020-10-10T04:04:03,42.805,6.029,0.009,-0.015,-0.001,102.0,104.0,99.0,13.3,1505.3,326.1,-0.8,1.8,2470.455,13.31,0.017,149.0
2020-10-10T04:07:03,42.805,6.029,0.023,-0.012,-0.005,100.0,106.0,99.0,13.4,1505.3,326.3,-0.7,1.9,2470.468,13.31,0.025,117.6
2020-10-10T04:10:03,42.805,6.029,0.033,-0.019,0.01,101.0,106.0,101.0,13.3,1505.3,325.9,-0.7,1.8,2470.457,13.32,0.038,119.9
2020-10-10T04:13:03,42.805,6.029,0.001,-0.02,-0.034,102.0,106.0,100.0,13.4,1505.3,324.8,-0.7,1.8,2470.453,13.32,0.02,177.1
2020-10-10T04:16:03,42.805,6.029,0.021,-0.011,-0.003,102.0,104.0,99.0,13.3,1505.3,323.8,-0.7,1.8,2470.416,13.32,0.023,117.6
2020-10-10T04:19:03,42.805,6.029,0.06,-0.007,0.031,102.0,105.0,100.0,13.4,1505.3,324.6,-0.7,1.8,2470.411,13.33,0.06,96.7
2020-10-10T04:22:03,42.805,6.029,0.063,-0.009,0.057,101.0,105.0,101.0,13.4,1505.3,325.9,-0.7,1.9,2470.44,13.33,0.063,98.1
2020-10-10T04:25:03,42.805,6.029,0.03,-0.022,0.014,102.0,102.0,101.0,13.4,1505.3,324.0,-0.7,1.8,2470.45,13.33,0.037,126.3
2020-10-10T04:28:03,42.805,6.029,0.092,-0.011,0.055,102.0,106.0,98.0,13.4,1505.3,327.1,-0.7,1.8,2470.47,13.33,0.092,96.8
2020-10-10T04:31:03,42.805,6.029,0.011,-0.01,0.025,101.0,106.0,99.0,13.3,1505.3,323.5,-0.7,1.9,2470.421,13.33,0.014,132.3
2020-10-10T04:34:03,42.805,6.029,0.033,-0.001,0.003,102.0,105.0,100.0,13.3,1505.3,326.2,-0.7,1.8,2470.429,13.33,0.033,91.7
2020-10-10T04:37:03,42.805,6.029,0.062,-0.01,0.033,101.0,106.0,100.0,13.4,1505.3,326.5,-0.7,1.8,2470.425,13.33,0.062,99.2
2020-10-10T04:40:03,42.805,6.029,0.029,-0.013,-0.004,101.0,106.0,100.0,13.4,1505.3,326.4,-0.7,1.8,2470.406,13.33,0.031,114.1
2020-10-10T04:43:03,42.805,6.029,0.035,0.015,0.037,103.0,106.0,99.0,13.4,1505.3,325.9,-0.6,1.9,2470.406,13.33,0.038,66.8
2020-10-10T04:46:03,42.805,6.029,0.044,0.002,0.036,101.0,104.0,100.0,13.3,1505.3,327.9,-0.7,1.9,2470.42,13.33,0.044,87.4
2020-10-10T04:49:03,42.805,6.029,-0.009,0.008,-0.045,102.0,105.0,99.0,13.4,1505.3,325.0,-0.7,1.8,2470.403,13.33,0.012,311.6
2020-10-10T04:52:03,42.805,6.029,0.016,-0.029,-0.009,103.0,105.0,99.0,13.3,1505.3,323.5,-0.7,1.8,2470.381,13.33,0.033,151.1
2020-10-10T04:55:03,42.805,6.029,0.001,-0.008,-0.024,102.0,105.0,99.0,13.4,1505.3,323.7,-0.7,1.8,2470.375,13.33,0.008,172.9
2020-10-10T04:58:03,42.805,6.029,0.026,-0.01,0.044,102.0,105.0,100.0,13.4,1505.3,326.8,-0.6,1.8,2470.418,13.33,0.027,111.0
2020-10-10T05:04:03,42.805,6.029,0.041,0.01,0.046,100.0,105.0,100.0,13.3,1505.3,324.3,-0.7,1.8,2470.429,13.31,0.042,76.3
2020-10-10T05:07:03,42.805,6.029,0.047,-0.006,-0.016,100.0,106.0,100.0,13.3,1505.3,325.7,-0.7,1.8,2470.433,13.31,0.047,97.3
2020-10-10T05:10:03,42.805,6.029,0.015,-0.017,-0.013,102.0,105.0,98.0,13.4,1505.3,325.5,-0.7,1.8,2470.425,13.32,0.022,138.6
2020-10-10T05:13:03,42.805,6.029,0.011,-0.006,-0.001,101.0,106.0,99.0,13.4,1505.3,326.6,-0.7,1.8,2470.44,13.32,0.012,118.6
2020-10-10T05:16:03,42.805,6.029,0.02,-0.026,-0.03,101.0,105.0,100.0,13.4,1505.3,325.2,-0.7,1.8,2470.433,13.32,0.032,142.4
2020-10-10T05:19:03,42.805,6.029,0.031,-0.024,-0.005,101.0,106.0,99.0,13.3,1505.3,326.9,-0.7,1.8,2470.399,13.33,0.039,127.7
2020-10-10T05:22:03,42.805,6.029,0.009,-0.024,-0.004,102.0,106.0,99.0,13.4,1505.3,327.1,-0.7,1.9,2470.409,13.33,0.025,159.4
2020-10-10T05:25:03,42.805,6.029,0.015,-0.006,0.021,100.0,105.0,100.0,13.4,1505.3,322.7,-0.7,1.8,2470.432,13.33,0.016,111.8
2020-10-10T05:28:03,42.805,6.029,0.027,-0.01,-0.034,100.0,104.0,100.0,13.3,1505.3,326.0,-0.7,1.8,2470.384,13.33,0.028,110.3
2020-10-10T05:31:03,42.805,6.029,0.011,0.0,-0.014,100.0,104.0,99.0,13.3,1505.3,324.7,-0.7,1.8,2470.378,13.33,0.011,90.0
2020-10-10T05:34:03,42.805,6.029,-0.021,-0.022,-0.044,101.0,105.0,99.0,13.4,1505.3,324.9,-0.7,1.8,2470.39,13.33,0.03,223.7
2020-10-10T05:37:03,42.805,6.029,0.006,-0.018,-0.025,102.0,107.0,99.0,13.4,1505.3,324.9,-0.7,1.9,2470.427,13.33,0.018,161.6
2020-10-10T05:40:03,42.805,6.029,-0.004,-0.013,-0.031,101.0,106.0,99.0,13.3,1505.3,326.0,-0.7,1.8,2470.406,13.33,0.013,197.1
2020-10-10T05:43:03,42.805,6.029,-0.029,-0.005,-0.006,101.0,105.0,99.0,13.4,1505.3,326.9,-0.7,1.9,2470.405,13.33,0.029,260.2
2020-10-10T05:46:03,42.805,6.029,-0.01,0.007,-0.009,102.0,106.0,98.0,13.4,1505.3,323.0,-0.7,1.8,2470.423,13.33,0.012,305.0
2020-10-10T05:49:03,42.805,6.029,0.021,0.0,0.03,100.0,105.0,100.0,13.3,1505.3,325.3,-0.7,1.8,2470.423,13.33,0.021,90.0
2020-10-10T05:52:03,42.805,6.029,0.006,0.003,0.008,101.0,106.0,99.0,13.3,1505.3,328.0,-0.7,1.9,2470.443,13.33,0.006,63.4
2020-10-10T05:55:03,42.805,6.029,-0.021,-0.014,-0.021,103.0,105.0,100.0,13.4,1505.3,324.1,-0.7,1.8,2470.423,13.33,0.025,236.3
2020-10-10T05:58:03,42.805,6.029,-0.012,-0.01,-0.01,101.0,106.0,99.0,13.4,1505.3,327.4,-0.7,1.8,2470.384,13.33,0.015,230.2
2020-10-10T06:04:03,42.805,6.029,0.009,0.0,0.026,101.0,108.0,99.0,13.4,1505.3,328.1,-0.8,1.8,2470.446,13.31,0.009,90.0
2020-10-10T06:07:03,42.805,6.029,0.017,-0.001,0.003,101.0,106.0,99.0,13.3,1505.3,326.3,-0.7,1.8,2470.411,13.31,0.017,93.4
2020-10-10T06:10:03,42.805,6.029,0.02,0.0,0.02,102.0,107.0,99.0,13.3,1505.3,324.7,-0.7,1.8,2470.413,13.32,0.02,90.0
2020-10-10T06:13:03,42.805,6.029,0.005,0.0,-0.014,102.0,105.0,99.0,13.3,1505.3,324.0,-0.7,1.8,2470.426,13.32,0.005,90.0
2020-10-10T06:16:03,42.805,6.029,-0.011,-0.002,-0.015,102.0,105.0,99.0,13.4,1505.3,323.0,-0.7,1.9,2470.367,13.32,0.011,259.7
2020-10-10T06:19:03,42.805,6.029,0.016,-0.011,0.027,103.0,106.0,101.0,13.4,1505.3,324.0,-0.7,1.8,2470.416,13.33,0.019,124.5
2020-10-10T06:22:03,42.805,6.029,0.013,0.0,0.02,102.0,106.0,99.0,13.3,1505.3,323.3,-0.7,1.8,2470.375,13.33,0.013,90.0
2020-10-10T06:25:03,42.805,6.029,-0.002,-0.017,0.0,101.0,106.0,100.0,13.4,1505.3,324.0,-0.7,1.8,2470.397,13.33,0.017,186.7
2020-10-10T06:28:03,42.805,6.029,-0.014,-0.042,-0.042,101.0,106.0,100.0,13.4,1505.3,323.8,-0.7,1.9,2470.373,13.33,0.044,198.4
2020-10-10T06:31:03,42.805,6.029,-0.001,0.002,0.011,101.0,107.0,99.0,13.4,1505.3,324.9,-0.7,1.9,2470.461,13.33,0.002,333.4
2020-10-10T06:34:03,42.805,6.029,-0.023,0.006,-0.03,104.0,107.0,98.0,13.4,1505.3,322.8,-0.7,1.8,2470.413,13.33,0.023,284.6
2020-10-10T06:37:03,42.805,6.029,-0.03,-0.003,-0.027,102.0,106.0,98.0,13.4,1505.3,324.0,-0.7,1.8,2470.375,13.33,0.03,264.3
2020-10-10T06:40:03,42.805,6.029,0.009,-0.022,0.004,100.0,106.0,100.0,13.4,1505.3,323.5,-0.7,1.8,2470.4,13.33,0.023,157.8
2020-10-10T06:43:03,42.805,6.029,0.0,0.002,-0.007,100.0,108.0,101.0,13.4,1505.3,327.3,-0.7,1.8,2470.402,13.33,0.002,0.0
2020-10-10T06:46:03,42.805,6.029,0.012,0.008,0.029,100.0,105.0,100.0,13.4,1505.3,327.0,-0.7,1.8,2470.358,13.33,0.014,56.3
2020-10-10T06:49:03,42.805,6.029,-0.012,-0.007,-0.026,100.0,106.0,100.0,13.4,1505.3,324.3,-0.7,1.8,2470.411,13.33,0.013,239.7
2020-10-10T06:52:03,42.805,6.029,0.006,0.007,-0.007,102.0,106.0,100.0,13.3,1505.3,326.7,-0.7,1.8,2470.441,13.33,0.009,40.6
2020-10-10T06:55:03,42.805,6.029,0.023,0.001,0.001,101.0,106.0,99.0,13.4,1505.3,326.2,-0.7,1.8,2470.403,13.33,0.023,87.5
2020-10-10T06:58:03,42.805,6.029,0.009,-0.008,0.023,102.0,107.0,99.0,13.4,1505.3,325.6,-0.7,1.8,2470.412,13.33,0.012,131.6
2020-10-10T07:04:03,42.805,6.029,-0.017,-0.003,-0.02,102.0,107.0,100.0,13.4,1505.3,326.1,-0.7,1.8,2470.392,13.31,0.017,260.0
2020-10-10T07:07:03,42.805,6.029,-0.015,-0.017,-0.033,102.0,105.0,98.0,13.4,1505.3,325.6,-0.7,1.8,2470.401,13.31,0.022,221.4
2020-10-10T07:10:03,42.805,6.029,-0.028,0.0,-0.025,101.0,107.0,100.0,13.3,1505.3,327.7,-0.7,1.8,2470.395,13.32,0.028,270.0
2020-10-10T07:13:03,42.805,6.029,-0.025,0.007,-0.009,103.0,106.0,100.0,13.4,1505.3,324.0,-0.7,1.8,2470.417,13.32,0.025,285.6
2020-10-10T07:16:03,42.805,6.029,0.011,-0.015,-0.003,102.0,107.0,100.0,13.4,1505.3,324.0,-0.7,1.8,2470.372,13.33,0.018,143.7
2020-10-10T07:19:03,42.805,6.029,0.008,0.003,0.0,101.0,106.0,99.0,13.4,1505.3,324.6,-0.7,1.8,2470.436,13.33,0.008,69.4
2020-10-10T07:25:03,42.805,6.029,-0.012,-0.007,-0.04,101.0,108.0,99.0,13.3,1505.3,324.9,-0.7,1.8,2470.462,13.31,0.013,239.7
2020-10-10T07:31:03,42.805,6.029,-0.01,0.007,-0.024,104.0,107.0,99.0,13.4,1505.2,323.3,-0.8,1.8,2470.45,13.3,0.012,305.0
2020-10-10T07:34:03,42.805,6.029,-0.003,0.012,-0.004,100.0,108.0,101.0,13.4,1505.3,326.4,-0.7,1.8,2470.504,13.31,0.012,346.0
2020-10-10T07:37:03,42.805,6.029,-0.002,0.001,-0.03,101.0,106.0,100.0,13.4,1505.3,326.3,-0.7,1.8,2470.443,13.32,0.002,296.6
2020-10-10T07:40:03,42.805,6.029,0.0,0.008,-0.002,101.0,107.0,100.0,13.4,1505.3,324.8,-0.7,1.8,2470.458,13.32,0.008,0.0
2020-10-10T07:43:03,42.805,6.029,-0.018,0.0,-0.04,103.0,107.0,99.0,13.4,1505.3,323.0,-0.7,1.8,2470.428,13.32,0.018,270.0
2020-10-10T07:46:03,42.805,6.029,0.008,0.004,0.013,101.0,107.0,101.0,13.4,1505.3,328.2,-0.7,1.8,2470.431,13.33,0.008,63.4
2020-10-10T07:49:03,42.805,6.029,-0.011,-0.002,-0.023,101.0,107.0,99.0,13.4,1505.3,326.0,-0.7,1.8,2470.419,13.33,0.011,259.7
2020-10-10T07:52:03,42.805,6.029,0.003,0.019,0.004,101.0,108.0,100.0,13.3,1505.3,327.5,-0.7,1.8,2470.43,13.33,0.019,9.0
2020-10-10T07:55:03,42.805,6.029,-0.013,0.006,-0.027,101.0,109.0,100.0,13.3,1505.3,323.3,-0.7,1.8,2470.472,13.33,0.014,294.8
2020-10-10T07:58:03,42.805,6.029,0.02,0.0,-0.013,101.0,107.0,99.0,13.3,1505.3,325.4,-0.7,1.8,2470.426,13.33,0.02,90.0
2020-10-10T08:04:03,42.805,6.029,-0.009,0.005,0.011,101.0,109.0,99.0,13.4,1505.3,323.5,-0.7,1.8,2470.459,13.31,0.01,299.1
2020-10-10T08:07:03,42.805,6.029,0.021,0.006,0.023,102.0,107.0,98.0,13.3,1505.3,323.2,-0.7,1.9,2470.492,13.32,0.021,74.1
2020-10-10T08:10:03,42.805,6.029,0.011,0.018,0.008,103.0,107.0,99.0,13.3,1505.3,327.4,-0.7,1.9,2470.421,13.32,0.021,31.4
2020-10-10T08:13:03,42.805,6.029,-0.004,-0.008,-0.012,101.0,108.0,99.0,13.3,1505.3,326.3,-0.7,1.8,2470.475,13.33,0.008,206.6
2020-10-10T08:16:03,42.805,6.029,-0.016,0.006,-0.015,102.0,107.0,99.0,13.4,1505.3,327.7,-0.7,1.8,2470.433,13.33,0.017,290.6
2020-10-10T08:19:03,42.805,6.029,0.023,0.005,0.007,101.0,109.0,99.0,13.3,1505.3,327.0,-0.7,1.9,2470.397,13.33,0.023,77.7
2020-10-10T08:22:03,42.805,6.029,0.016,0.014,0.017,101.0,107.0,99.0,13.3,1505.3,327.8,-0.7,1.8,2470.42,13.33,0.021,48.8
2020-10-10T08:25:03,42.805,6.029,0.023,0.009,0.026,102.0,108.0,100.0,13.4,1505.3,325.4,-0.7,1.8,2470.424,13.33,0.024,68.6
2020-10-10T08:28:03,42.805,6.029,0.032,0.0,0.038,101.0,107.0,100.0,13.3,1505.3,327.6,-0.7,1.8,2470.431,13.33,0.032,90.0
2020-10-10T08:31:03,42.805,6.029,0.041,0.023,0.037,100.0,107.0,100.0,13.4,1505.3,324.9,-0.7,1.8,2470.454,13.33,0.047,60.7
2020-10-10T08:34:03,42.805,6.029,-0.006,0.006,0.03,102.0,107.0,100.0,13.4,1505.3,325.0,-0.7,1.8,2470.382,13.33,0.008,315.0
2020-10-10T08:37:03,42.805,6.029,0.018,0.003,0.007,103.0,107.0,99.0,13.3,1505.3,323.4,-0.7,1.8,2470.44,13.33,0.018,80.5
2020-10-10T08:40:03,42.805,6.029,0.008,0.023,0.041,101.0,107.0,100.0,13.4,1505.3,326.6,-0.7,1.8,2470.437,13.33,0.024,19.2
2020-10-10T08:43:03,42.805,6.029,-0.001,0.022,0.017,101.0,109.0,100.0,13.4,1505.3,323.2,-0.7,1.8,2470.448,13.33,0.022,357.4
2020-10-10T08:46:03,42.805,6.029,0.022,-0.008,-0.006,102.0,108.0,100.0,13.3,1505.3,326.0,-0.7,1.8,2470.446,13.33,0.023,110.0
2020-10-10T08:49:03,42.805,6.029,0.024,0.011,0.033,102.0,108.0,101.0,13.4,1505.3,325.1,-0.7,1.9,2470.447,13.33,0.026,65.4
2020-10-10T08:52:03,42.805,6.029,0.013,0.018,0.016,103.0,108.0,100.0,13.3,1505.3,326.8,-0.7,1.9,2470.427,13.33,0.022,35.8
2020-10-10T08:55:03,42.805,6.029,-0.009,0.005,0.008,102.0,109.0,99.0,13.4,1505.3,325.1,-0.7,1.8,2470.407,13.33,0.01,299.1
2020-10-10T08:58:03,42.805,6.029,-0.019,-0.01,0.0,102.0,110.0,100.0,13.3,1505.3,326.6,-0.7,1.8,2470.376,13.33,0.021,242.2
2020-10-10T09:04:03,42.805,6.029,0.008,0.004,0.022,104.0,108.0,101.0,13.4,1505.3,326.8,-0.8,1.9,2470.465,13.31,0.008,63.4
2020-10-10T09:07:03,42.805,6.029,0.019,0.011,0.051,100.0,110.0,100.0,13.4,1505.3,327.6,-0.8,1.8,2470.46,13.32,0.021,59.9
2020-10-10T09:10:03,42.805,6.029,0.0,-0.003,0.004,102.0,109.0,100.0,13.4,1505.3,323.3,-0.7,1.8,2470.465,13.33,0.003,180.0
2020-10-10T09:13:03,42.805,6.029,-0.016,0.0,0.002,101.0,110.0,101.0,13.4,1505.3,326.3,-0.7,1.8,2470.487,13.33,0.016,270.0
2020-10-10T09:16:03,42.805,6.029,0.011,0.0,-0.009,102.0,110.0,100.0,13.3,1505.3,324.7,-0.7,1.8,2470.47,13.33,0.011,90.0
2020-10-10T09:19:03,42.805,6.029,0.008,-0.009,0.002,102.0,109.0,100.0,13.4,1505.3,327.6,-0.7,1.8,2470.455,13.33,0.012,138.4
2020-10-10T09:22:03,42.805,6.029,-0.033,0.016,-0.016,102.0,110.0,100.0,13.4,1505.3,327.6,-0.7,1.9,2470.479,13.33,0.036,295.9
2020-10-10T09:25:03,42.805,6.029,0.003,0.0,-0.012,102.0,109.0,99.0,13.4,1505.3,327.4,-0.7,1.8,2470.469,13.33,0.003,90.0
2020-10-10T09:28:03,42.805,6.029,0.026,0.003,0.04,103.0,108.0,100.0,13.4,1505.3,323.8,-0.7,1.8,2470.441,13.33,0.026,83.4
2020-10-10T09:31:03,42.805,6.029,0.004,0.006,0.038,102.0,110.0,100.0,13.4,1505.3,326.0,-0.7,1.8,2470.492,13.33,0.007,33.7
2020-10-10T09:34:03,42.805,6.029,0.01,0.002,0.015,102.0,110.0,100.0,13.3,1505.3,324.6,-0.7,1.8,2470.462,13.33,0.01,78.7
2020-10-10T09:37:03,42.805,6.029,-0.014,0.027,0.012,102.0,110.0,101.0,13.3,1505.3,324.4,-0.7,1.8,2470.438,13.33,0.03,332.6
2020-10-10T09:40:03,42.805,6.029,-0.003,0.006,-0.024,101.0,110.0,100.0,13.4,1505.4,327.6,-0.7,1.8,2470.455,13.34,0.006,333.4
2020-10-10T09:43:03,42.805,6.029,0.011,0.022,0.04,102.0,110.0,100.0,13.3,1505.3,326.1,-0.7,1.8,2470.447,13.33,0.024,26.6
2020-10-10T09:46:03,42.805,6.029,-0.009,0.021,0.017,101.0,111.0,99.0,13.4,1505.3,325.6,-0.7,1.8,2470.477,13.33,0.022,336.8
2020-10-10T09:49:03,42.805,6.029,-0.009,0.009,-0.014,102.0,111.0,101.0,13.4,1505.3,322.9,-0.7,1.9,2470.433,13.33,0.012,315.0
2020-10-10T09:52:03,42.805,6.029,0.006,0.019,0.015,101.0,110.0,100.0,13.4,1505.3,323.8,-0.7,1.8,2470.462,13.33,0.019,17.5
2020-10-10T09:55:03,42.805,6.029,-0.003,0.002,-0.019,101.0,111.0,100.0,13.4,1505.3,327.9,-0.7,1.8,2470.483,13.33,0.003,303.7
2020-10-10T09:58:03,42.805,6.029,0.002,0.01,0.011,101.0,111.0,101.0,13.4,1505.3,323.2,-0.7,1.8,2470.471,13.33,0.01,11.3
2020-10-10T10:04:03,42.805,6.029,-0.002,0.002,0.034,101.0,111.0,100.0,13.4,1505.3,328.2,-0.7,1.8,2470.487,13.31,0.002,315.0
2020-10-10T10:07:03,42.805,6.029,-0.005,0.021,-0.001,103.0,111.0,99.0,13.4,1505.3,323.2,-0.7,1.8,2470.464,13.32,0.021,346.6
2020-10-10T10:10:03,42.805,6.029,-0.011,0.018,0.004,101.0,111.0,100.0,13.3,1505.3,324.6,-0.7,1.8,2470.496,13.33,0.021,328.6
2020-10-10T10:13:03,42.805,6.029,0.026,0.011,0.034,101.0,110.0,100.0,13.3,1505.3,324.2,-0.8,1.8,2470.51,13.33,0.028,67.1
2020-10-10T10:16:03,42.805,6.029,0.02,0.019,0.015,102.0,109.0,99.0,13.4,1505.3,328.1,-0.7,1.9,2470.517,13.33,0.027,46.5